OAL4KP LGAV-LGKP

Flight info

Callsign OAL4KP
Flight time 0h 45m
Altitude 23000
Route KEA N132 NIBOX
Aircraft A320/M-SDE3FGHIRWY/LB1

Departure

Time 2026-04-26 10:57
Airport Athens Eleftherios Venizelos International Airport (LGAV)

Arrival

Time 2026-04-26 11:42
Airport Karpathos Airport (LGKP)
Time Latitude Longitude Altitude Speed Heading
2026-04-26 10:44 37.94051 23.95252 303 ft 0 kts 39°
2026-04-26 10:49 37.94041 23.95242 303 ft 2 kts 39°
2026-04-26 10:49 37.94028 23.95228 301 ft 2 kts 39°
2026-04-26 10:49 37.94015 23.95216 302 ft 2 kts 39°
2026-04-26 10:50 37.94003 23.95202 301 ft 2 kts 42°
2026-04-26 10:50 37.93990 23.95187 301 ft 2 kts 90°
2026-04-26 10:50 37.93998 23.95170 301 ft 2 kts 123°
2026-04-26 10:50 37.94001 23.95164 301 ft 0 kts 129°
2026-04-26 10:52 37.93987 23.95186 304 ft 9 kts 127°
2026-04-26 10:52 37.93930 23.95286 300 ft 18 kts 126°
2026-04-26 10:52 37.93844 23.95417 300 ft 21 kts 149°
2026-04-26 10:53 37.93746 23.95371 299 ft 15 kts 216°
2026-04-26 10:53 37.93653 23.95284 299 ft 18 kts 217°
2026-04-26 10:53 37.93549 23.95185 300 ft 20 kts 216°
2026-04-26 10:54 37.93313 23.94962 299 ft 23 kts 217°
2026-04-26 10:54 37.93181 23.94837 302 ft 25 kts 216°
2026-04-26 10:54 37.93041 23.94705 301 ft 26 kts 217°
2026-04-26 10:54 37.92889 23.94561 301 ft 28 kts 217°
2026-04-26 10:55 37.92729 23.94409 303 ft 30 kts 216°
2026-04-26 10:55 37.92613 23.94301 303 ft 14 kts 212°
2026-04-26 10:55 37.92531 23.94335 305 ft 14 kts 128°
2026-04-26 10:55 37.92480 23.94428 309 ft 12 kts 103°
2026-04-26 10:56 37.92547 23.94512 307 ft 23 kts 37°
2026-04-26 10:56 37.92845 23.94794 301 ft 87 kts 37°
2026-04-26 10:56 37.93484 23.95399 284 ft 139 kts 37°
2026-04-26 10:56 37.94357 23.96230 479 ft 163 kts 38°
2026-04-26 10:57 37.95248 23.97087 1256 ft 159 kts 37°
2026-04-26 10:57 37.96126 23.97930 2044 ft 157 kts 37°
2026-04-26 10:57 37.96990 23.98759 2799 ft 155 kts 36°
2026-04-26 10:57 37.97846 23.99581 3497 ft 155 kts 37°
2026-04-26 10:58 37.98750 24.00447 3958 ft 174 kts 37°
2026-04-26 10:58 37.99778 24.01434 4339 ft 197 kts 38°
2026-04-26 10:58 38.00939 24.02551 4739 ft 222 kts 39°
2026-04-26 10:58 38.02197 24.03766 5300 ft 237 kts 39°
2026-04-26 10:59 38.03520 24.05062 6000 ft 249 kts 43°
2026-04-26 10:59 38.04536 24.06890 6563 ft 260 kts 71°
2026-04-26 10:59 38.04728 24.09169 7322 ft 265 kts 99°
2026-04-26 10:59 38.04000 24.11315 8162 ft 271 kts 127°
2026-04-26 11:00 38.02607 24.12960 9043 ft 275 kts 137°
2026-04-26 11:00 38.01130 24.14519 9918 ft 278 kts 138°
2026-04-26 11:00 37.99607 24.16108 10439 ft 293 kts 138°
2026-04-26 11:00 37.97971 24.17816 10668 ft 316 kts 138°
2026-04-26 11:01 37.96248 24.19622 10964 ft 333 kts 138°
2026-04-26 11:01 37.94422 24.21539 11577 ft 340 kts 138°
2026-04-26 11:01 37.92613 24.23437 12240 ft 344 kts 138°
2026-04-26 11:01 37.90761 24.25378 12909 ft 348 kts 139°
2026-04-26 11:02 37.88887 24.27347 13591 ft 352 kts 139°
2026-04-26 11:02 37.86992 24.29338 14214 ft 356 kts 139°
2026-04-26 11:02 37.85076 24.31349 14812 ft 360 kts 139°
2026-04-26 11:02 37.83141 24.33371 15415 ft 363 kts 139°
2026-04-26 11:03 37.81195 24.35407 16011 ft 365 kts 139°
2026-04-26 11:03 37.79232 24.37466 16606 ft 368 kts 139°
2026-04-26 11:03 37.77254 24.39539 17192 ft 371 kts 139°
2026-04-26 11:03 37.75278 24.41605 17780 ft 374 kts 139°
2026-04-26 11:04 37.73265 24.43703 18389 ft 377 kts 139°
2026-04-26 11:04 37.71230 24.45822 18912 ft 380 kts 139°
2026-04-26 11:04 37.69184 24.47957 19434 ft 383 kts 139°
2026-04-26 11:04 37.67119 24.50112 19966 ft 386 kts 139°
2026-04-26 11:05 37.65040 24.52281 20506 ft 389 kts 139°
2026-04-26 11:05 37.62947 24.54468 21021 ft 392 kts 138°
2026-04-26 11:05 37.60838 24.56670 21500 ft 395 kts 139°
2026-04-26 11:05 37.58740 24.58854 21973 ft 398 kts 139°
2026-04-26 11:06 37.56596 24.61075 22451 ft 401 kts 139°
2026-04-26 11:06 37.54435 24.63312 22899 ft 403 kts 139°
2026-04-26 11:06 37.52263 24.65560 23016 ft 408 kts 139°
2026-04-26 11:06 37.50033 24.67870 23035 ft 419 kts 139°
2026-04-26 11:07 37.47770 24.70216 23027 ft 423 kts 139°
2026-04-26 11:07 37.45500 24.72572 23035 ft 423 kts 139°
2026-04-26 11:07 37.43225 24.74930 23025 ft 424 kts 139°
2026-04-26 11:07 37.40946 24.77281 23035 ft 424 kts 139°
2026-04-26 11:08 37.38663 24.79629 23033 ft 424 kts 139°
2026-04-26 11:08 37.36404 24.81950 23029 ft 424 kts 139°
2026-04-26 11:08 37.34118 24.84301 23029 ft 425 kts 139°
2026-04-26 11:08 37.31838 24.86649 23030 ft 425 kts 139°
2026-04-26 11:09 37.29549 24.89004 23033 ft 425 kts 139°
2026-04-26 11:09 37.27263 24.91353 23033 ft 424 kts 139°
2026-04-26 11:09 37.24981 24.93694 23026 ft 424 kts 139°
2026-04-26 11:09 37.22692 24.96042 23030 ft 424 kts 139°
2026-04-26 11:10 37.20442 24.98351 23010 ft 424 kts 139°
2026-04-26 11:10 37.18159 25.00693 23012 ft 424 kts 139°
2026-04-26 11:10 37.15881 25.03031 23002 ft 424 kts 139°
2026-04-26 11:10 37.13600 25.05370 23000 ft 424 kts 139°
2026-04-26 11:11 37.11319 25.07703 23001 ft 424 kts 139°
2026-04-26 11:11 37.09030 25.10033 22996 ft 424 kts 139°
2026-04-26 11:11 37.06740 25.12362 22992 ft 424 kts 139°
2026-04-26 11:11 37.04454 25.14689 22990 ft 424 kts 139°
2026-04-26 11:12 37.02162 25.17023 22992 ft 424 kts 139°
2026-04-26 11:12 36.99870 25.19361 22992 ft 425 kts 139°
2026-04-26 11:12 36.97614 25.21662 22984 ft 425 kts 139°
2026-04-26 11:12 36.95321 25.23998 22987 ft 425 kts 139°
2026-04-26 11:13 36.93023 25.26334 22990 ft 426 kts 139°
2026-04-26 11:13 36.90723 25.28664 22994 ft 426 kts 139°
2026-04-26 11:13 36.88418 25.30995 22993 ft 426 kts 139°
2026-04-26 11:13 36.86115 25.33322 22994 ft 427 kts 139°
2026-04-26 11:14 36.83806 25.35657 22992 ft 427 kts 139°
2026-04-26 11:14 36.81504 25.37986 22997 ft 427 kts 139°
2026-04-26 11:14 36.79193 25.40322 22993 ft 427 kts 139°
2026-04-26 11:14 36.76909 25.42627 22995 ft 427 kts 139°
2026-04-26 11:15 36.74599 25.44957 23001 ft 427 kts 139°
2026-04-26 11:15 36.72288 25.47288 22997 ft 427 kts 139°
2026-04-26 11:15 36.69977 25.49615 22999 ft 428 kts 139°
2026-04-26 11:15 36.67664 25.51943 23003 ft 428 kts 139°
2026-04-26 11:16 36.65347 25.54271 22999 ft 428 kts 139°
2026-04-26 11:16 36.63036 25.56592 23004 ft 427 kts 139°
2026-04-26 11:16 36.60721 25.58921 23000 ft 427 kts 139°
2026-04-26 11:16 36.58439 25.61215 23002 ft 427 kts 139°
2026-04-26 11:17 36.56130 25.63532 23003 ft 427 kts 139°
2026-04-26 11:17 36.53813 25.65853 23001 ft 427 kts 139°
2026-04-26 11:17 36.51503 25.68166 23000 ft 427 kts 139°
2026-04-26 11:17 36.49192 25.70478 23002 ft 427 kts 139°
2026-04-26 11:18 36.46876 25.72790 23002 ft 426 kts 139°
2026-04-26 11:18 36.44565 25.75098 23001 ft 426 kts 139°
2026-04-26 11:18 36.42254 25.77404 23001 ft 426 kts 139°
2026-04-26 11:18 36.39943 25.79706 22997 ft 426 kts 139°
2026-04-26 11:19 36.37627 25.82010 22995 ft 426 kts 139°
2026-04-26 11:19 36.35349 25.84275 22999 ft 426 kts 139°
2026-04-26 11:19 36.33033 25.86576 22998 ft 426 kts 139°
2026-04-26 11:19 36.30726 25.88873 22997 ft 426 kts 139°
2026-04-26 11:20 36.28412 25.91176 22998 ft 426 kts 139°
2026-04-26 11:20 36.26884 25.92695 22993 ft 426 kts 139°
2026-04-26 11:20 36.23796 25.95767 22991 ft 426 kts 138°
2026-04-26 11:20 36.21481 25.98066 22994 ft 426 kts 139°
2026-04-26 11:21 36.19164 26.00357 22996 ft 426 kts 139°
2026-04-26 11:21 36.16848 26.02644 22998 ft 426 kts 139°
2026-04-26 11:21 36.14562 26.04902 22997 ft 426 kts 139°
2026-04-26 11:21 36.12248 26.07187 22995 ft 424 kts 139°
2026-04-26 11:22 36.09963 26.09438 22417 ft 418 kts 139°
2026-04-26 11:22 36.07703 26.11662 21740 ft 413 kts 139°
2026-04-26 11:22 36.05470 26.13862 21085 ft 408 kts 139°
2026-04-26 11:22 36.03267 26.16033 20463 ft 404 kts 139°
2026-04-26 11:23 36.01081 26.18186 19871 ft 399 kts 139°
2026-04-26 11:23 35.98919 26.20311 19296 ft 395 kts 139°
2026-04-26 11:23 35.96796 26.22373 18736 ft 392 kts 140°
2026-04-26 11:23 35.94675 26.24465 18185 ft 389 kts 139°
2026-04-26 11:24 35.92621 26.26613 17583 ft 385 kts 137°
2026-04-26 11:24 35.90648 26.28807 16991 ft 380 kts 135°
2026-04-26 11:24 35.88731 26.31031 16411 ft 376 kts 135°
2026-04-26 11:24 35.86852 26.33259 15818 ft 373 kts 134°
2026-04-26 11:25 35.84998 26.35469 15242 ft 369 kts 135°
2026-04-26 11:25 35.83140 26.37671 14247 ft 376 kts 135°
2026-04-26 11:25 35.81249 26.39898 13121 ft 386 kts 135°
2026-04-26 11:25 35.79303 26.42176 12301 ft 385 kts 136°
2026-04-26 11:26 35.77367 26.44424 11592 ft 380 kts 136°
2026-04-26 11:26 35.75459 26.46638 10914 ft 375 kts 135°
2026-04-26 11:26 35.73929 26.49119 10725 ft 355 kts 121°
2026-04-26 11:26 35.72715 26.51679 10599 ft 337 kts 120°
2026-04-26 11:27 35.71572 26.54129 10371 ft 324 kts 120°
2026-04-26 11:27 35.70492 26.56453 10249 ft 310 kts 120°
2026-04-26 11:27 35.69444 26.58708 10134 ft 298 kts 120°
2026-04-26 11:27 35.68424 26.60897 9680 ft 297 kts 120°
2026-04-26 11:28 35.67393 26.63108 9206 ft 297 kts 120°
2026-04-26 11:28 35.66363 26.65302 8791 ft 295 kts 120°
2026-04-26 11:28 35.65338 26.67477 8371 ft 293 kts 120°
2026-04-26 11:28 35.64319 26.69633 7968 ft 291 kts 120°
2026-04-26 11:29 35.63302 26.71775 7571 ft 289 kts 120°
2026-04-26 11:29 35.62304 26.73863 7181 ft 287 kts 120°
2026-04-26 11:29 35.61296 26.75953 6661 ft 281 kts 119°
2026-04-26 11:29 35.60408 26.78087 5907 ft 279 kts 115°
2026-04-26 11:30 35.59575 26.80201 5442 ft 267 kts 115°
2026-04-26 11:30 35.59079 26.81463 5325 ft 254 kts 115°
2026-04-26 11:30 35.58340 26.83328 5100 ft 238 kts 115°
2026-04-26 11:30 35.57631 26.85093 4867 ft 224 kts 115°
2026-04-26 11:31 35.56956 26.86764 4608 ft 212 kts 115°
2026-04-26 11:31 35.56312 26.88352 4139 ft 211 kts 115°
2026-04-26 11:31 35.55646 26.89972 3771 ft 213 kts 115°
2026-04-26 11:31 35.54980 26.91584 3506 ft 210 kts 115°
2026-04-26 11:32 35.54310 26.93195 3152 ft 212 kts 115°
2026-04-26 11:32 35.53549 26.94742 2941 ft 209 kts 123°
2026-04-26 11:32 35.52729 26.96165 2812 ft 200 kts 122°
2026-04-26 11:32 35.51946 26.97539 2688 ft 193 kts 122°
2026-04-26 11:33 35.51195 26.98861 2556 ft 184 kts 122°
2026-04-26 11:33 35.50487 27.00104 2446 ft 171 kts 122°
2026-04-26 11:33 35.49836 27.01246 2314 ft 161 kts 122°
2026-04-26 11:33 35.49197 27.02369 2121 ft 160 kts 121°
2026-04-26 11:34 35.48564 27.03482 1990 ft 158 kts 121°
2026-04-26 11:34 35.47934 27.04584 1874 ft 158 kts 121°
2026-04-26 11:34 35.47290 27.05686 1720 ft 154 kts 122°
2026-04-26 11:34 35.46657 27.06667 1601 ft 140 kts 124°
2026-04-26 11:35 35.46077 27.07632 1416 ft 144 kts 120°
2026-04-26 11:35 35.45508 27.08632 1201 ft 145 kts 122°
2026-04-26 11:35 35.44910 27.09659 1000 ft 146 kts 122°
2026-04-26 11:35 35.44336 27.10644 780 ft 143 kts 123°
2026-04-26 11:36 35.43776 27.11621 568 ft 138 kts 122°
2026-04-26 11:36 35.43232 27.12574 345 ft 134 kts 123°
2026-04-26 11:36 35.42710 27.13512 124 ft 133 kts 123°
2026-04-26 11:36 35.42211 27.14398 43 ft 115 kts 125°
2026-04-26 11:37 35.41731 27.15240 65 ft 146 kts 124°
2026-04-26 11:37 35.41106 27.16323 668 ft 157 kts 134°
2026-04-26 11:37 35.40097 27.16877 1404 ft 169 kts 176°
2026-04-26 11:37 35.38974 27.16431 2147 ft 173 kts 219°
2026-04-26 11:38 35.38317 27.15165 2389 ft 192 kts 262°
2026-04-26 11:38 35.38487 27.13546 2612 ft 197 kts 299°
2026-04-26 11:38 35.39209 27.12129 2590 ft 196 kts 308°
2026-04-26 11:38 35.39985 27.10758 2510 ft 196 kts 308°
2026-04-26 11:39 35.40741 27.09367 2392 ft 197 kts 307°
2026-04-26 11:39 35.41472 27.08011 2234 ft 184 kts 307°
2026-04-26 11:39 35.42164 27.06737 2033 ft 175 kts 307°
2026-04-26 11:39 35.42884 27.05610 1835 ft 160 kts 324°
2026-04-26 11:40 35.43872 27.05120 1695 ft 154 kts
2026-04-26 11:40 35.44899 27.05477 1537 ft 156 kts 32°
2026-04-26 11:40 35.45595 27.06458 1353 ft 151 kts 63°
2026-04-26 11:40 35.45774 27.07678 1248 ft 145 kts 88°
2026-04-26 11:41 35.45440 27.08810 1080 ft 146 kts 125°
2026-04-26 11:42 35.41848 27.15033 56 ft 45 kts 125°
2026-04-26 11:43 35.41685 27.15321 71 ft 28 kts 126°
2026-04-26 11:43 35.41579 27.15512 68 ft 27 kts 124°
2026-04-26 11:43 35.41613 27.15630 74 ft 19 kts 353°
2026-04-26 11:43 35.41723 27.15549 67 ft 21 kts 303°
2026-04-26 11:44 35.41813 27.15392 67 ft 25 kts 306°
2026-04-26 11:44 35.41925 27.15189 59 ft 31 kts 303°
2026-04-26 11:44 35.42085 27.15093 47 ft 26 kts 358°
2026-04-26 11:44 35.42261 27.15070 31 ft 25 kts 320°
2026-04-26 11:45 35.42373 27.14934 28 ft 15 kts 315°
2026-04-26 11:45 35.42455 27.14848 30 ft 15 kts 341°
2026-04-26 11:45 35.42580 27.14858 30 ft 20 kts 358°
2026-04-26 11:45 35.42625 27.14795 27 ft 9 kts 345°
2026-04-26 11:46 35.42646 27.14826 30 ft 0 kts 108°
2026-04-26 11:46 35.42643 27.14828 30 ft 0 kts 133°